[[{"header":{"parameterUnit":"m.s-1","parameterCategory":1,"la1":30.2991,"la2":30.254,"lo1":-89.0895,"lo2":-89.0444,"dy":0.0017,"dx":0.0017,"nx":28,"ny":28,"refTime":"2024-10-18T03:00:00:Z","depth":0,"parameterNumber":2,"parameterNumberName":"U-component_of_WINDS"},"data":[0,0,0,0,0,0,0,0,0,0,0,0,0,0,0,0,0,0,0,0,0,0,0,0,0,0,0,0,0,0,0,0,0,0,0,0,0,0,0,0,0,0,0,0,0,0,0,0,0,0,0,0,0,0,0,0,0,0,-4.5652,-4.5652,0,-4.5667,-4.5667,-4.5667,-4.5465,-4.546,-4.5454,-4.5449,-4.5467,-4.5472,-4.5478,0,0,0,0,0,0,0,0,0,0,0,0,0,-4.5451,-4.5456,-4.5652,-4.5652,-4.5653,-4.5667,-4.5667,-4.5667,-4.5466,-4.5459,-4.5453,-4.5447,-4.5465,-4.5472,-4.5478,0,0,0,0,0,0,0,0,0,0,0,0,0,-4.551,-4.5458,-4.5652,-4.5554,-4.5545,-4.5667,-4.5667,-4.5667,-4.5468,-4.5459,-4.5451,-4.5443,-4.5463,-4.5471,-4.5479,-4.5697,0,0,-4.5505,-4.5509,0,0,0,0,0,0,0,0,-4.5507,-4.5517,-4.5568,-4.5561,-4.5551,-4.5556,-4.5602,-4.5677,-4.547,-4.5497,-4.5449,-4.5439,-4.5503,-4.5508,-4.5529,-4.5697,-4.5698,-4.5506,-4.5511,-4.5515,-4.5517,0,0,0,0,0,0,0,-4.5503,-4.5515,-4.5658,-4.5569,-4.5559,-4.5509,-4.5509,-4.5616,-4.5547,-4.5494,-4.548,-4.5484,-4.5497,-4.5521,-4.5528,-4.5698,-4.5506,-4.5513,-4.5518,-4.5522,-4.6044,-4.6053,0,0,0,0,0,0,-4.5512,-4.5513,-4.5657,-4.5658,-4.5508,-4.552,-4.5519,-4.5563,-4.5545,-4.5534,-4.5491,-4.5474,-4.5511,-4.5518,-4.5528,-4.578,-4.5514,-4.5522,-4.5527,-4.6035,-4.6046,-4.6056,0,0,0,0,0,0,-4.5508,-4.5527,-4.5657,-4.5582,-4.5595,-4.5532,-4.5583,-4.5567,-4.5591,-4.5542,-4.5529,-4.5528,-4.5505,-4.5516,-4.5655,-4.5778,-4.5526,-4.5534,-4.6025,-4.6039,-4.6051,-4.6288,0,0,0,0,0,0,-4.5503,-4.5527,-4.5609,-4.5585,-4.5599,-4.5785,-4.559,-4.5574,-4.5606,-4.5584,-4.5574,-4.5564,-4.5499,-4.5644,-4.5664,-4.5785,-4.554,-4.6014,-4.6031,-4.6047,-4.6269,-4.6308,-4.6341,0,0,0,0,0,-4.5497,-4.5676,-4.5614,-4.5632,-4.57,-4.5793,-4.5801,-4.5722,-4.5617,-4.5698,-4.5666,-4.5564,-4.5761,-4.566,-4.5681,-4.5806,-4.6006,-4.6026,-4.6046,-4.6253,-4.63,-4.634,0,0,0,0,0,0,-4.5717,-4.5671,-4.5602,-4.5778,-4.5791,-4.5758,-4.5859,-4.5774,-4.5818,-4.5796,-4.5696,-4.5696,-4.5852,-4.5842,-4.5731,-4.6015,-4.5865,-4.589,-4.6016,-4.606,-4.6095,-4.6095,-4.5547,0,0,0,0,0,-4.5785,-4.5863,-4.5819,-4.5979,-4.5988,-4.5924,-4.5961,-4.5898,-4.5907,-4.5912,-4.589,-4.5904,-4.5968,-4.6013,-4.607,-4.6266,-4.6261,-4.6362,-4.6398,-4.6428,-4.6451,-4.6554,-4.6598,-4.6121,-4.6121,-4.6121,0,0,-4.5929,-4.5913,-4.5969,-4.6023,-4.6025,-4.6108,-4.5929,-4.6025,-4.6086,-4.5927,-4.6057,-4.6042,-4.605,-4.6219,-4.6292,-4.6216,-4.6582,-4.6453,-4.6477,-4.6485,-4.6579,-4.6624,-4.6664,-4.6135,-4.6132,-4.613,0,0,-4.6232,-4.6229,-4.6361,-4.6366,-4.6371,-4.6326,-4.6358,-4.6339,-4.6322,-4.6451,-4.6332,-4.6403,-4.6517,-4.6527,-4.6548,-4.6854,-4.6761,-4.6875,-4.7064,-4.7164,-4.7202,-4.7235,-4.7345,-4.7385,-4.6898,-4.6898,-4.6899,0,-4.641,-4.6531,-4.644,-4.6544,-4.6571,-4.6428,-4.6561,-4.6571,-4.6596,-4.6618,-4.6532,-4.667,-4.6666,-4.6835,-4.6909,-4.693,-4.6964,-4.6877,-4.7204,-4.7236,-4.7265,-4.7369,-4.741,-4.6912,-4.6911,-4.6909,-4.6908,0,-4.6749,-4.6835,-4.6941,-4.6966,-4.7005,-4.7124,-4.7051,-4.7101,-4.7034,-4.6999,-4.7132,-4.7121,-4.7173,-4.7207,-4.7144,-4.7368,-4.732,-4.7221,-4.7068,-4.7326,-4.7422,-4.746,-4.6932,-4.6927,-4.6923,-4.6919,0,0,-4.7195,-4.7166,-4.7207,-4.7216,-4.7211,-4.7275,-4.7386,-4.7435,-4.7481,-4.7501,-4.7593,-4.7691,-4.7598,-4.7621,-4.7557,-4.7646,-4.7889,-4.7535,-4.7533,-4.7602,-4.8135,-4.8211,-4.8258,-4.7827,-4.7834,-4.7839,-4.8134,0,-4.7491,-4.7679,-4.7599,-4.7795,-4.7873,-4.7737,-4.7834,-4.7841,-4.781,-4.7871,-4.7837,-4.7908,-4.778,-4.7793,-4.7874,-4.7843,-4.7995,-4.782,-4.7912,-4.7916,-4.7916,-4.8308,-4.8389,-4.8668,-4.8171,-4.8177,-4.8182,0,-4.7862,-4.7897,-4.81,-4.8079,-4.8108,-4.8197,-4.8235,-4.8295,-4.83,-4.8271,-4.8297,-4.8212,-4.832,-4.8167,-4.8314,-4.8197,-4.8229,-4.8219,-4.8228,-4.8235,-4.8066,-4.8327,-4.8755,-4.8797,-4.8239,-4.8235,-4.8231,0,-4.8167,-4.8265,-4.8399,-4.8411,-4.8389,-4.8455,-4.8449,-4.8445,-4.848,-4.8513,-4.8534,-4.858,-4.8606,-4.8644,-4.8574,-4.8469,-4.8731,-4.8572,-4.8711,-4.8713,-4.8774,-4.8772,-4.9215,-4.8794,-4.8793,-4.8792,-4.8791,0,-4.8507,-4.8638,-4.8535,-4.8619,-4.876,-4.8667,-4.8809,-4.8789,-4.8786,-4.8863,-4.8748,-4.8822,-4.8725,-4.879,-4.8736,-4.8867,-4.8879,-4.8859,-4.8844,-4.887,-4.8873,-4.8892,-4.8871,-4.8803,-4.8801,-4.8799,-4.8797,0,-4.8873,-4.881,-4.8947,-4.8915,-4.891,-4.9016,-4.8988,-4.9063,-4.9023,-4.9121,-4.9139,-4.9077,-4.9147,-4.9081,-4.9148,-4.9111,-4.9286,-4.9242,-4.9285,-4.9273,-4.9415,-4.9404,-4.9887,-4.9946,-4.9486,-4.9491,-4.9495,0,-4.9095,-4.9192,-4.9169,-4.9212,-4.9212,-4.9283,-4.9316,-4.9228,-4.9268,-4.9279,-4.9354,-4.9414,-4.9457,-4.9576,-4.9538,-4.9588,-4.9545,-4.9711,-4.9552,-4.9576,-4.9549,-4.9544,-4.9554,-4.9744,-4.975,-4.9754,-4.9758,0,-4.9496,-4.9459,-4.9512,-4.9554,-4.9597,-4.9626,-4.9646,-4.9688,-4.9596,-4.9647,-4.9717,-4.9751,-4.9818,-4.988,-4.9918,-4.9911,-4.9821,-4.9807,-4.9842,-4.9872,-4.9893,-4.9884,-4.9374,-4.9797,-4.9793,-4.9791,-4.9788,-4.9787,-4.9797,-4.9876,-4.9872,-4.9934,-4.994,-4.9961,-5.003,-4.9997,-5.0054,-5.0101,-5.0045,-5.0131,-5.0132,-5.0173,-5.0178,-5.0244,-5.0174,-5.0225,-5.0238,-5.0252,-5.0273,-4.9881,-5.025,-5.0249,-5.0248,-5.0247,-5.0246,0,-5.0192,-5.0182,-5.024,-5.0271,-5.032,-5.0227,-5.0244,-5.0292,-5.0369,-5.0376,-5.0421,-5.0501,-5.056,-5.0525,-5.0575,-5.0635,-5.0594,-5.0651,-5.0647,-5.0647,-5.0332,-5.0298,-5.0683,-5.0683,-5.0683,-5.0683,-5.0683,-5.0683,-5.0404,-5.0533,-5.0496,-5.0626,-5.0615,-5.0697,-5.0715,-5.0734,-5.0739,-5.0833,-5.0881,-5.0857,-5.0848,-5.0896,-5.0946,-5.0934,-5.0958,-5.1031,-5.1004,-5.0712,-5.0669,-5.0628,-5.0595,-5.1036,-5.1037,-5.1313,-5.1315,-5.1317]},{"header":{"parameterUnit":"m.s-1","parameterCategory":1,"la1":30.2991,"la2":30.254,"lo1":-89.0895,"lo2":-89.0444,"dy":0.0017,"dx":0.0017,"nx":28,"ny":28,"refTime":"2024-10-18T03:00:00:Z","depth":0,"parameterNumber":3,"parameterNumberName":"V-component_of_WINDS"},"data":[0,0,0,0,0,0,0,0,0,0,0,0,0,0,0,0,0,0,0,0,0,0,0,0,0,0,0,0,0,0,0,0,0,0,0,0,0,0,0,0,0,0,0,0,0,0,0,0,0,0,0,0,0,0,0,0,0,0,-3.0637,-3.0637,0,-3.0665,-3.0666,-3.0666,-3.0667,-3.0667,-3.0667,-3.0666,-3.0693,-3.0694,-3.0695,0,0,0,0,0,0,0,0,0,0,0,0,0,-3.0579,-3.058,-3.0637,-3.0637,-3.0638,-3.0665,-3.0666,-3.0666,-3.0667,-3.0667,-3.0666,-3.0666,-3.0692,-3.0694,-3.0695,0,0,0,0,0,0,0,0,0,0,0,0,0,-3.0606,-3.0581,-3.0637,-3.0642,-3.0642,-3.0665,-3.0666,-3.0666,-3.0667,-3.0667,-3.0666,-3.0666,-3.0692,-3.0693,-3.0695,-3.0714,0,0,-3.07,-3.07,0,0,0,0,0,0,0,0,-3.0604,-3.0608,-3.0641,-3.0641,-3.0642,-3.0662,-3.0655,-3.0682,-3.0667,-3.0658,-3.0666,-3.0666,-3.0683,-3.0685,-3.0691,-3.0715,-3.0716,-3.07,-3.0701,-3.0701,-3.0702,0,0,0,0,0,0,0,-3.0602,-3.0607,-3.0648,-3.0641,-3.0642,-3.0641,-3.0644,-3.066,-3.0673,-3.0659,-3.0659,-3.0662,-3.0683,-3.069,-3.0692,-3.0717,-3.07,-3.0701,-3.0702,-3.0703,-3.0754,-3.0755,0,0,0,0,0,0,-3.06,-3.0605,-3.0647,-3.0649,-3.0622,-3.0642,-3.0646,-3.0656,-3.0672,-3.0674,-3.0663,-3.0662,-3.0688,-3.069,-3.0693,-3.0714,-3.0701,-3.0703,-3.0704,-3.0754,-3.0755,-3.0755,0,0,0,0,0,0,-3.0599,-3.0604,-3.0646,-3.0627,-3.0632,-3.0644,-3.0655,-3.0657,-3.0664,-3.0676,-3.0677,-3.0668,-3.0687,-3.0691,-3.0708,-3.0715,-3.0703,-3.0705,-3.0753,-3.0754,-3.0755,-3.0759,0,0,0,0,0,0,-3.0597,-3.0603,-3.0612,-3.0627,-3.0633,-3.0662,-3.0656,-3.0658,-3.0667,-3.0666,-3.0681,-3.0682,-3.0687,-3.0706,-3.071,-3.0717,-3.0706,-3.0753,-3.0754,-3.0755,-3.0758,-3.0759,-3.0761,0,0,0,0,0,-3.0595,-3.0612,-3.0612,-3.0618,-3.0644,-3.0663,-3.0666,-3.0672,-3.0667,-3.0675,-3.0682,-3.0682,-3.0714,-3.0708,-3.0712,-3.072,-3.0752,-3.0753,-3.0755,-3.0757,-3.0759,-3.0761,0,0,0,0,0,0,-3.0597,-3.0614,-3.0615,-3.0638,-3.0649,-3.0663,-3.0673,-3.0674,-3.0686,-3.0685,-3.0691,-3.0694,-3.0711,-3.0717,-3.071,-3.0738,-3.0732,-3.0734,-3.0733,-3.0735,-3.0736,-3.0734,-3.0707,0,0,0,0,0,-3.06,-3.0615,-3.0628,-3.0647,-3.0652,-3.0662,-3.067,-3.0673,-3.0685,-3.0689,-3.0698,-3.0708,-3.072,-3.0728,-3.074,-3.0759,-3.0761,-3.0766,-3.0767,-3.0768,-3.077,-3.0778,-3.078,-3.0759,-3.0759,-3.0759,0,0,-3.0607,-3.0618,-3.0627,-3.0647,-3.0657,-3.067,-3.0666,-3.0681,-3.069,-3.0691,-3.0708,-3.0714,-3.0726,-3.0743,-3.0752,-3.0749,-3.0776,-3.077,-3.0771,-3.0771,-3.0779,-3.0781,-3.0783,-3.0759,-3.0759,-3.0759,0,0,-3.0625,-3.0636,-3.0651,-3.066,-3.0674,-3.0679,-3.0683,-3.0697,-3.0701,-3.0718,-3.0718,-3.0729,-3.075,-3.0758,-3.0764,-3.0783,-3.0782,-3.0786,-3.0793,-3.0801,-3.0802,-3.0804,-3.0809,-3.0811,-3.0788,-3.0788,-3.0788,0,-3.0631,-3.0653,-3.0659,-3.0673,-3.0681,-3.0683,-3.0697,-3.0705,-3.0722,-3.0726,-3.0724,-3.0749,-3.0757,-3.0775,-3.0779,-3.0785,-3.0788,-3.0785,-3.0802,-3.0803,-3.0805,-3.0809,-3.0811,-3.0788,-3.0788,-3.0788,-3.0788,0,-3.0658,-3.0672,-3.0683,-3.0699,-3.0708,-3.0722,-3.0729,-3.0737,-3.0739,-3.0744,-3.076,-3.077,-3.0782,-3.0787,-3.0789,-3.0805,-3.0803,-3.0801,-3.0796,-3.0807,-3.0811,-3.0813,-3.0788,-3.0788,-3.0788,-3.0788,0,0,-3.068,-3.0697,-3.0701,-3.0707,-3.0721,-3.0731,-3.0744,-3.0757,-3.0763,-3.0774,-3.0784,-3.0801,-3.0799,-3.0806,-3.0809,-3.0816,-3.0827,-3.0813,-3.0813,-3.0814,-3.0842,-3.0843,-3.0845,-3.0827,-3.0827,-3.0828,-3.0841,0,-3.0698,-3.0722,-3.0727,-3.0748,-3.0759,-3.076,-3.0771,-3.078,-3.0785,-3.0795,-3.0799,-3.0811,-3.0808,-3.0812,-3.0819,-3.0824,-3.0833,-3.0823,-3.0835,-3.0835,-3.0831,-3.0848,-3.0849,-3.0861,-3.0843,-3.0843,-3.0843,0,-3.0723,-3.0734,-3.0756,-3.0766,-3.0771,-3.0781,-3.0792,-3.0802,-3.0811,-3.0814,-3.0821,-3.0822,-3.0834,-3.0828,-3.0843,-3.0837,-3.0842,-3.0845,-3.0845,-3.0846,-3.0839,-3.0847,-3.0865,-3.0867,-3.0846,-3.0846,-3.0846,0,-3.0734,-3.0754,-3.0769,-3.0775,-3.0788,-3.0794,-3.08,-3.0808,-3.0815,-3.0824,-3.0828,-3.0838,-3.0843,-3.0851,-3.0854,-3.085,-3.0868,-3.0863,-3.0869,-3.0869,-3.0873,-3.0873,-3.0891,-3.0878,-3.0878,-3.0877,-3.0877,0,-3.0754,-3.0766,-3.0774,-3.0783,-3.0796,-3.0801,-3.0814,-3.0819,-3.0826,-3.0835,-3.0837,-3.0845,-3.0849,-3.0857,-3.086,-3.0871,-3.0874,-3.0875,-3.0875,-3.0875,-3.0874,-3.0877,-3.0876,-3.0878,-3.0878,-3.0878,-3.0878,0,-3.0768,-3.0774,-3.079,-3.08,-3.0803,-3.0812,-3.0821,-3.0828,-3.0833,-3.0844,-3.0846,-3.0853,-3.0862,-3.0866,-3.0878,-3.088,-3.0892,-3.0892,-3.0889,-3.0889,-3.0894,-3.0893,-3.0914,-3.0917,-3.0903,-3.0903,-3.0903,0,-3.078,-3.0789,-3.08,-3.0807,-3.0812,-3.0822,-3.0829,-3.0833,-3.0839,-3.0849,-3.0855,-3.0865,-3.0873,-3.0888,-3.0893,-3.0901,-3.0901,-3.0907,-3.0902,-3.09,-3.0899,-3.0898,-3.0898,-3.0908,-3.0908,-3.0909,-3.0909,0,-3.0799,-3.0801,-3.0811,-3.0821,-3.0828,-3.0836,-3.0844,-3.0849,-3.0854,-3.0861,-3.0871,-3.0877,-3.0888,-3.0897,-3.0906,-3.091,-3.0909,-3.091,-3.0912,-3.0911,-3.0908,-3.0908,-3.0891,-3.091,-3.091,-3.091,-3.0909,-3.0909,-3.0811,-3.0819,-3.0827,-3.0837,-3.0844,-3.085,-3.0858,-3.0862,-3.0871,-3.0881,-3.0883,-3.0893,-3.0899,-3.0911,-3.0915,-3.0922,-3.092,-3.0923,-3.0923,-3.0924,-3.0923,-3.0907,-3.0924,-3.0924,-3.0924,-3.0924,-3.0924,0,-3.0829,-3.0834,-3.0843,-3.0854,-3.0861,-3.0861,-3.0869,-3.0875,-3.0884,-3.089,-3.0898,-3.0908,-3.0916,-3.0921,-3.0929,-3.0933,-3.0933,-3.0935,-3.0935,-3.0935,-3.0925,-3.0923,-3.0935,-3.0935,-3.0935,-3.0935,-3.0935,-3.0935,-3.0839,-3.0851,-3.0854,-3.0869,-3.0873,-3.0883,-3.0888,-3.0893,-3.0899,-3.091,-3.0917,-3.092,-3.0926,-3.0934,-3.0941,-3.0942,-3.0944,-3.0946,-3.0947,-3.0937,-3.0936,-3.0935,-3.0932,-3.0947,-3.0947,-3.0956,-3.0956,-3.0956]}]]